[[{"header":{"parameterUnit":"m.s-1","parameterCategory":1,"la1":30.2991,"la2":30.254,"lo1":-89.0895,"lo2":-89.0444,"dy":0.0017,"dx":0.0017,"nx":28,"ny":28,"refTime":"2025-01-06T03:00:00:Z","depth":0,"parameterNumber":2,"parameterNumberName":"U-component_of_WINDS"},"data":[0,0,0,0,0,0,0,0,0,0,0,0,0,0,0,0,0,0,0,0,0,0,0,0,0,0,0,0,0,0,0,0,0,0,0,0,0,0,0,0,0,0,0,0,0,0,0,0,0,0,0,0,0,0,0,0,0,0,3.9496,3.9497,0,3.9543,3.9543,3.9544,3.9513,3.9511,3.951,3.9509,3.9555,3.9557,3.9559,0,0,0,0,0,0,0,0,0,0,0,0,0,3.9381,3.9383,3.9496,3.9497,3.9497,3.9543,3.9543,3.9544,3.9513,3.9511,3.951,3.9508,3.9554,3.9557,3.956,0,0,0,0,0,0,0,0,0,0,0,0,0,3.9429,3.9384,3.9496,3.9488,3.9487,3.9543,3.9543,3.9544,3.9513,3.9511,3.9509,3.9507,3.9553,3.9556,3.956,3.9626,0,0,3.9572,3.9573,0,0,0,0,0,0,0,0,3.9427,3.9434,3.9488,3.9488,3.9488,3.952,3.9519,3.9572,3.9514,3.9503,3.9509,3.9506,3.9545,3.9549,3.9562,3.9628,3.963,3.9572,3.9574,3.9576,3.9577,0,0,0,0,0,0,0,3.9423,3.9432,3.9515,3.9489,3.9489,3.9481,3.9486,3.9529,3.9535,3.9504,3.9502,3.9508,3.9544,3.9559,3.9563,3.9631,3.9572,3.9575,3.9578,3.9579,3.9756,3.9758,0,0,0,0,0,0,3.9421,3.9429,3.9513,3.9516,3.9452,3.9485,3.949,3.9512,3.9535,3.9536,3.951,3.9506,3.9553,3.9559,3.9565,3.9644,3.9576,3.958,3.9582,3.9753,3.9756,3.9759,0,0,0,0,0,0,3.9419,3.9429,3.9511,3.9472,3.9482,3.9489,3.9514,3.9514,3.9528,3.9539,3.954,3.9524,3.9552,3.9559,3.9612,3.9646,3.9581,3.9585,3.975,3.9754,3.9757,3.9804,0,0,0,0,0,0,3.9415,3.9428,3.9453,3.9473,3.9484,3.9558,3.9516,3.9516,3.9535,3.9531,3.9552,3.9554,3.9551,3.9606,3.9615,3.965,3.9588,3.9747,3.9752,3.9756,3.98,3.9809,3.9817,0,0,0,0,0,3.9411,3.9463,3.9454,3.9465,3.9515,3.956,3.9566,3.9562,3.9538,3.9563,3.9571,3.9553,3.9641,3.9612,3.9622,3.9658,3.9745,3.9751,3.9756,3.9796,3.9807,3.9817,0,0,0,0,0,0,3.9446,3.9466,3.9456,3.9516,3.9537,3.9554,3.9586,3.9574,3.9601,3.9596,3.959,3.9595,3.965,3.9659,3.9627,3.9724,3.9689,3.9697,3.9716,3.9727,3.9735,3.9732,3.9591,0,0,0,0,0,3.9461,3.9495,3.951,3.9562,3.9573,3.9578,3.9597,3.9592,3.9613,3.9621,3.9632,3.9653,3.9685,3.9707,3.9737,3.9801,3.9806,3.9831,3.984,3.9847,3.9853,3.989,3.9901,3.9776,3.9776,3.9776,0,0,3.9491,3.9506,3.9528,3.9569,3.9585,3.9621,3.9585,3.9624,3.9651,3.9627,3.9678,3.9687,3.9709,3.9769,3.9795,3.9778,3.9889,3.9854,3.9859,3.9862,3.9897,3.9908,3.9919,3.978,3.9779,3.9779,0,0,3.9565,3.958,3.9625,3.9642,3.9666,3.967,3.9681,3.9701,3.9707,3.9758,3.9741,3.9773,3.9829,3.9846,3.9862,3.9946,3.9931,3.9956,4.0001,4.0037,4.0046,4.0055,4.0086,4.0097,3.9963,3.9963,3.9963,0,3.9599,3.9653,3.965,3.9691,3.971,3.9692,3.9738,3.9754,3.9787,3.9801,3.9782,3.9853,3.9866,3.993,3.9951,3.9965,3.9977,3.9953,4.0045,4.0054,4.0062,4.0091,4.0103,3.9966,3.9966,3.9965,3.9965,0,3.9695,3.9733,3.9767,3.98,3.9823,3.9867,3.987,3.9894,3.9889,3.9894,3.9948,3.9964,3.9998,4.0013,4.0007,4.0077,4.0066,4.0046,4.0011,4.0077,4.0105,4.0116,3.997,3.9969,3.9968,3.9967,0,0,3.979,3.9823,3.9836,3.9852,3.9879,3.9908,3.9951,3.9986,4.0007,4.0031,4.0067,4.0116,4.0099,4.0118,4.0114,4.0145,4.0212,4.0122,4.0122,4.0139,4.0292,4.0306,4.0319,4.0203,4.0205,4.0207,4.029,0,3.9866,3.9942,3.9941,4.0012,4.0048,4.0032,4.007,4.0091,4.0099,4.013,4.0138,4.0173,4.0147,4.0158,4.0189,4.0198,4.0243,4.0192,4.0237,4.0239,4.0232,4.0333,4.0348,4.0425,4.03,4.0302,4.0304,0,3.9964,3.9993,4.0068,4.0092,4.0106,4.0141,4.0173,4.0204,4.0228,4.0231,4.0253,4.0245,4.029,4.0255,4.0317,4.0282,4.0301,4.0309,4.0312,4.0315,4.0275,4.034,4.045,4.0462,4.032,4.0319,4.0318,0,4.0027,4.0084,4.0137,4.0151,4.018,4.0205,4.0218,4.024,4.0261,4.029,4.0304,4.0338,4.0356,4.0382,4.0384,4.0358,4.0447,4.0411,4.0451,4.0452,4.047,4.0469,4.0585,4.0483,4.0483,4.0482,4.0482,0,4.0111,4.0158,4.0166,4.0198,4.025,4.0249,4.0301,4.0312,4.0332,4.0367,4.0355,4.0388,4.0389,4.0422,4.0424,4.0476,4.0484,4.0488,4.0488,4.0489,4.0489,4.0501,4.0496,4.0485,4.0485,4.0484,4.0484,0,4.0189,4.0197,4.0253,4.0277,4.0284,4.0322,4.0342,4.0373,4.038,4.0424,4.0434,4.0446,4.0485,4.049,4.0535,4.0536,4.0599,4.0593,4.0591,4.059,4.063,4.0627,4.0758,4.0775,4.0662,4.0663,4.0664,0,4.0243,4.0279,4.0307,4.033,4.0345,4.0381,4.0404,4.0406,4.043,4.0461,4.0489,4.0527,4.0558,4.0622,4.0634,4.0669,4.0664,4.0708,4.0669,4.0669,4.0665,4.0663,4.0667,4.0715,4.0716,4.0717,4.0718,0,4.0337,4.034,4.0373,4.0409,4.0436,4.0464,4.049,4.0509,4.0514,4.0542,4.0583,4.0607,4.0654,4.0693,4.0728,4.0742,4.0731,4.073,4.0741,4.0743,4.074,4.0743,4.0612,4.0727,4.0726,4.0725,4.0725,4.0724,4.0405,4.0437,4.0462,4.05,4.0521,4.0546,4.0577,4.0589,4.0623,4.0663,4.0662,4.0707,4.0732,4.0778,4.0795,4.083,4.0816,4.0832,4.0836,4.084,4.0844,4.0735,4.0837,4.0836,4.0836,4.0836,4.0836,0,4.0499,4.0516,4.0551,4.0589,4.0619,4.0608,4.0637,4.0663,4.0703,4.0728,4.0759,4.0807,4.0845,4.0861,4.0898,4.0924,4.092,4.0933,4.0931,4.0935,4.0854,4.0841,4.0936,4.0936,4.0936,4.0936,4.0936,4.0936,4.0552,4.0606,4.0612,4.0676,4.0692,4.0736,4.0754,4.0778,4.0798,4.0852,4.0884,4.0894,4.0916,4.0956,4.099,4.0994,4.1009,4.1025,4.1026,4.0951,4.094,4.0931,4.0918,4.1028,4.1028,4.1104,4.1104,4.1105]},{"header":{"parameterUnit":"m.s-1","parameterCategory":1,"la1":30.2991,"la2":30.254,"lo1":-89.0895,"lo2":-89.0444,"dy":0.0017,"dx":0.0017,"nx":28,"ny":28,"refTime":"2025-01-06T03:00:00:Z","depth":0,"parameterNumber":3,"parameterNumberName":"V-component_of_WINDS"},"data":[0,0,0,0,0,0,0,0,0,0,0,0,0,0,0,0,0,0,0,0,0,0,0,0,0,0,0,0,0,0,0,0,0,0,0,0,0,0,0,0,0,0,0,0,0,0,0,0,0,0,0,0,0,0,0,0,0,0,-7.3873,-7.3875,0,-7.4027,-7.4028,-7.403,-7.4021,-7.4018,-7.4016,-7.4014,-7.4166,-7.4172,-7.4178,0,0,0,0,0,0,0,0,0,0,0,0,0,-7.3568,-7.3574,-7.3873,-7.3875,-7.3877,-7.4026,-7.4029,-7.4031,-7.4021,-7.4018,-7.4016,-7.4013,-7.4164,-7.4172,-7.4179,0,0,0,0,0,0,0,0,0,0,0,0,0,-7.3709,-7.3576,-7.3873,-7.389,-7.3893,-7.4026,-7.4029,-7.4031,-7.4022,-7.4018,-7.4015,-7.4012,-7.4162,-7.4171,-7.418,-7.4304,0,0,-7.4208,-7.4212,0,0,0,0,0,0,0,0,-7.3701,-7.372,-7.3886,-7.3889,-7.3893,-7.4001,-7.3977,-7.4122,-7.4022,-7.3973,-7.4014,-7.401,-7.4114,-7.4127,-7.4163,-7.4311,-7.4317,-7.4209,-7.4214,-7.4218,-7.4221,0,0,0,0,0,0,0,-7.3691,-7.3713,-7.3934,-7.3888,-7.3893,-7.3889,-7.3906,-7.4004,-7.406,-7.3977,-7.3977,-7.3995,-7.4115,-7.4154,-7.4166,-7.432,-7.4209,-7.4217,-7.4223,-7.4226,-7.4578,-7.4582,0,0,0,0,0,0,-7.3678,-7.3705,-7.3929,-7.3938,-7.3787,-7.3898,-7.3916,-7.397,-7.4059,-7.4069,-7.3998,-7.3994,-7.414,-7.4156,-7.4172,-7.4323,-7.4218,-7.4227,-7.4232,-7.4574,-7.4579,-7.4583,0,0,0,0,0,0,-7.3672,-7.3698,-7.3923,-7.3822,-7.385,-7.3906,-7.3967,-7.3975,-7.4013,-7.4075,-7.4084,-7.4028,-7.4138,-7.4159,-7.4272,-7.4328,-7.4231,-7.424,-7.457,-7.4576,-7.4581,-7.4627,0,0,0,0,0,0,-7.3663,-7.3696,-7.3744,-7.3823,-7.3856,-7.4021,-7.3971,-7.398,-7.403,-7.4027,-7.4105,-7.4115,-7.4137,-7.4258,-7.4281,-7.4339,-7.4247,-7.4565,-7.4573,-7.4579,-7.4621,-7.4634,-7.4645,0,0,0,0,0,-7.3652,-7.3749,-7.3746,-7.3773,-7.3917,-7.4024,-7.4043,-7.4068,-7.4034,-7.4083,-7.4123,-7.4112,-7.4319,-7.427,-7.4295,-7.4357,-7.4562,-7.457,-7.4579,-7.4615,-7.4631,-7.4644,0,0,0,0,0,0,-7.3673,-7.376,-7.3758,-7.3884,-7.3947,-7.4023,-7.4085,-7.4083,-7.4156,-7.4149,-7.4175,-7.4193,-7.4307,-7.4343,-7.4287,-7.4482,-7.4436,-7.445,-7.4455,-7.447,-7.4482,-7.447,-7.4254,0,0,0,0,0,-7.3693,-7.3774,-7.3845,-7.3949,-7.3981,-7.4028,-7.4075,-7.4089,-7.4155,-7.4181,-7.4229,-7.4292,-7.4371,-7.4423,-7.4499,-7.4626,-7.4643,-7.4681,-7.4693,-7.4703,-7.4715,-7.4786,-7.4804,-7.4612,-7.4611,-7.4611,0,0,-7.3734,-7.3791,-7.384,-7.3955,-7.4006,-7.4088,-7.405,-7.4139,-7.42,-7.4194,-7.4304,-7.4342,-7.4414,-7.4535,-7.4591,-7.4569,-7.4772,-7.4714,-7.4721,-7.4728,-7.4797,-7.4815,-7.4831,-7.4617,-7.4616,-7.4615,0,0,-7.385,-7.3902,-7.3996,-7.4048,-7.4126,-7.4157,-7.4179,-7.4256,-7.4281,-7.4393,-7.4391,-7.4463,-7.4599,-7.4651,-7.4695,-7.4834,-7.4827,-7.4858,-7.492,-7.4989,-7.5005,-7.5018,-7.5068,-7.5086,-7.4869,-7.487,-7.487,0,-7.3891,-7.4017,-7.4043,-7.4134,-7.4184,-7.4185,-7.428,-7.4328,-7.4427,-7.4461,-7.4436,-7.4607,-7.4656,-7.479,-7.4824,-7.486,-7.4886,-7.4849,-7.5,-7.5014,-7.5027,-7.5075,-7.5094,-7.4873,-7.4872,-7.4872,-7.4872,0,-7.4063,-7.415,-7.4216,-7.4314,-7.4372,-7.4463,-7.4503,-7.4559,-7.4568,-7.4601,-7.4715,-7.4774,-7.4862,-7.4895,-7.4904,-7.5031,-7.5015,-7.4995,-7.4948,-7.5049,-7.5094,-7.5113,-7.4877,-7.4876,-7.4875,-7.4875,0,0,-7.4196,-7.4309,-7.4332,-7.4377,-7.4465,-7.4532,-7.4624,-7.4713,-7.476,-7.4828,-7.4906,-7.5022,-7.5005,-7.5055,-7.507,-7.513,-7.5238,-7.5103,-7.5105,-7.5126,-7.5382,-7.5397,-7.5418,-7.5234,-7.5238,-7.5241,-7.5376,0,-7.4322,-7.4487,-7.4514,-7.4658,-7.474,-7.4743,-7.4823,-7.4885,-7.4918,-7.4991,-7.5028,-7.511,-7.5081,-7.5111,-7.5171,-7.5212,-7.5289,-7.5202,-7.5306,-7.5309,-7.5288,-7.5441,-7.5457,-7.5582,-7.5394,-7.5397,-7.5399,0,-7.449,-7.4566,-7.4719,-7.4797,-7.4832,-7.4904,-7.4988,-7.5058,-7.5128,-7.5149,-7.5206,-7.5215,-7.531,-7.526,-7.5391,-7.5331,-7.5375,-7.5401,-7.5407,-7.5417,-7.536,-7.5456,-7.5622,-7.5641,-7.5427,-7.5425,-7.5423,0,-7.4573,-7.4712,-7.4822,-7.486,-7.4954,-7.5005,-7.5046,-7.5113,-7.5165,-7.5239,-7.5273,-7.5355,-7.5401,-7.5464,-7.5494,-7.5455,-7.5624,-7.5576,-7.5643,-7.5642,-7.5678,-7.5675,-7.5854,-7.5706,-7.5706,-7.5706,-7.5705,0,-7.4711,-7.4804,-7.4861,-7.4928,-7.5033,-7.5064,-7.5167,-7.5206,-7.5267,-7.5341,-7.5348,-7.5418,-7.5454,-7.5529,-7.5553,-7.5658,-7.5678,-7.5697,-7.5702,-7.5697,-7.5694,-7.5725,-7.5717,-7.5711,-7.571,-7.5709,-7.5708,0,-7.482,-7.4862,-7.4982,-7.5062,-7.5084,-7.5158,-7.5226,-7.5291,-7.5326,-7.542,-7.5444,-7.5497,-7.5586,-7.5623,-7.5731,-7.5747,-7.5869,-7.5867,-7.5846,-7.5847,-7.5912,-7.5906,-7.6117,-7.6146,-7.5979,-7.5981,-7.5982,0,-7.4905,-7.4978,-7.5066,-7.5118,-7.5161,-7.5244,-7.5298,-7.5331,-7.5387,-7.5474,-7.5529,-7.5619,-7.5692,-7.5834,-7.5881,-7.5964,-7.5965,-7.6033,-7.5977,-7.597,-7.5966,-7.5962,-7.5969,-7.6043,-7.6045,-7.6046,-7.6047,0,-7.5052,-7.507,-7.5149,-7.5236,-7.5301,-7.537,-7.5437,-7.5479,-7.5522,-7.5585,-7.5677,-7.5734,-7.5846,-7.5935,-7.6021,-7.6062,-7.6062,-7.6065,-7.6085,-7.6079,-7.6064,-7.6074,-7.5874,-7.6059,-7.6058,-7.6057,-7.6057,-7.6056,-7.5153,-7.5218,-7.5291,-7.5379,-7.5434,-7.5497,-7.5563,-7.5607,-7.5685,-7.578,-7.5795,-7.5894,-7.5963,-7.6079,-7.6124,-7.6201,-7.6183,-7.6212,-7.6219,-7.6226,-7.6231,-7.6053,-7.6217,-7.6216,-7.6216,-7.6216,-7.6216,0,-7.53,-7.5348,-7.5429,-7.5525,-7.5594,-7.559,-7.5665,-7.5723,-7.581,-7.5876,-7.5949,-7.6055,-7.6142,-7.6197,-7.6284,-7.6335,-7.6338,-7.6357,-7.6353,-7.6363,-7.6241,-7.6215,-7.6354,-7.6354,-7.6354,-7.6354,-7.6354,-7.6354,-7.5385,-7.5496,-7.5523,-7.5661,-7.5707,-7.5806,-7.5849,-7.5908,-7.5961,-7.608,-7.6153,-7.6189,-7.6251,-7.6343,-7.6422,-7.6436,-7.6467,-7.6488,-7.6501,-7.6386,-7.6371,-7.6358,-7.6334,-7.6495,-7.6495,-7.6617,-7.6618,-7.6619]}]]